Regional Weather Roundup
Issued by NWS

Home | Current Version | Previous Version | Graphics & Text | Print | Product List | Glossary On
Versions: 1 2 3 4 5 6 7 8 9 10 11 12 13 14 15 16 17 18 19 20 21 22 23 24 25 26 27 28 29 30 31 32 33 34 35 36 37 38 39 40 41 42 43 44 45 46 47 48 49 50
000
ASUS43 KOAX 152010
RWRNE

WEATHER ROUNDUP FOR NEBRASKA
NATIONAL WEATHER SERVICE OMAHA NE
200 PM CST MON JAN 15 2018

NOTES: SATELLITE DATA IS BEING USED TO AUGMENT CLOUD COVER ABOVE
       12000 FEET.
       "FAIR" INDICATES FEW OR NO CLOUDS BELOW 12,000 FEET WITH NO
       SIGNIFICANT WEATHER AND/OR OBSTRUCTIONS TO VISIBILITY.


NEZ001>004-019>022-054>056-152100-
NEBRASKA PANHANDLE

CITY           SKY/WX    TMP DP  RH WIND       PRES   REMARKS
SCOTTSBLUFF    SUNNY     13   0  56 N16       30.54F WCI  -3
ALLIANCE       SUNNY      3  -4  72 NW17      30.54F WCI -17
CHADRON        SUNNY      6  -4  63 N10       30.65F WCI  -9
GORDON         FAIR       3  -5  69 NW18G26   30.58S WCI -18
KIMBALL        SUNNY     14  -2  47 NW24      30.45F WCI  -5
SIDNEY         SUNNY     10   0  63 N16       30.50F WCI  -7
$$

NEZ057>060-069>072-079>082-152100-
SOUTHWEST NEBRASKA

CITY           SKY/WX    TMP DP  RH WIND       PRES   REMARKS
NORTH PLATTE   SUNNY      8  -6  52 NW24G32   30.58F WCI -13
IMPERIAL       MOSUNNY   14   1  56 N21G28    30.55F WCI  -4
LEXINGTON      SUNNY      7  -3  61 N20       30.59F WCI -12
MCCOOK         MOSUNNY   12   1  61 NW28      30.58F WCI  -9
OGALLALA       SUNNY     12   0  59 N26G32    30.56F WCI  -9
$$

NEZ005>010-023>029-035>040-094-152100-
NORTH CENTRAL NEBRASKA

CITY           SKY/WX    TMP DP  RH WIND       PRES   REMARKS
VALENTINE      SUNNY      2  -9  60 NW25G37   30.62F WCI -22
AINSWORTH      MOSUNNY    1  -7  70 NW28      30.59S WCI -24
BROKEN BOW     MOSUNNY    4  -7  60 NW25G33   30.57F WCI -19
O`NEILL        CLOUDY     0  -7  73 NW24G33   30.59S HAZE    WCI -24
ORD            MOSUNNY    5  -6  60 NW25G33   30.59F WCI -18
THEDFORD       MOSUNNY    3  -6  66 NW26G37   30.58S WCI -21
$$

NEZ041-046>049-061>064-073>077-083>087-152100-
SOUTH CENTRAL NEBRASKA

CITY           SKY/WX    TMP DP  RH WIND       PRES   REMARKS
GRAND ISLAND   MOSUNNY    6  -3  66 NW23G32   30.58F WCI -15
AURORA         PTSUNNY    7  -3  63 N21       30.58S WCI -13
HASTINGS       PTSUNNY    5  -4  66 N24       30.58F WCI -17
HEBRON         CLOUDY     9  -2  61 NW17G26   30.61S WCI  -9
HOLDREGE       PTSUNNY    6  -3  67 NW18G29   30.58F WCI -14
KEARNEY        CLOUDY     4  -5  66 N22G28    30.59F WCI -18
YORK           PTSUNNY    9   0  66 N20G33    30.56F WCI -11
$$

NEZ011>018-030>034-042>045-152100-
NORTHEAST NEBRASKA

CITY           SKY/WX    TMP DP  RH WIND       PRES   REMARKS
NORFOLK        CLOUDY     2  -5  72 NW26G36   30.55F WCI -22
ALBION         PTSUNNY    5  -5  64 N28G33    30.56F WCI -19
BLAIR          CLOUDY     3  -6  64 NW25G32   30.54S WCI -20
COLUMBUS       CLOUDY     7  -3  64 NW26      30.59R WCI -15
FREMONT        CLOUDY     6  -3  67 NW24G30   30.58F WCI -16
TEKAMAH        PTSUNNY    3  -8  60 NW28G39   30.59S WCI -21
WAYNE          PTSUNNY    1  -9  63 NW24G32   30.58S WCI -23
$$

NEZ050>053-065>068-078-088>093-152100-
SOUTHEAST NEBRASKA

CITY           SKY/WX    TMP DP  RH WIND       PRES   REMARKS
LINCOLN        CLOUDY     9  -3  58 NW25G36   30.59S WCI -12
OMAHA EPPLEY   PTSUNNY    5  -6  60 NW29G38   30.57R WCI -19
BEATRICE       CLOUDY    10   1  67 N25       30.58S WCI -11
FALLS CITY     PTSUNNY    7  -4  60 NW18G33   30.57S WCI -12
NEBRASKA CITY  CLOUDY     7   0  74 N15G23    30.56S HAZE    WCI -11
PLATTSMOUTH    CLOUDY     4  -4  68 NW25      30.55S WCI -18
$$

NEZ044-045-051>053-067-152100-
OMAHA AREA

CITY           SKY/WX    TMP DP  RH WIND       PRES   REMARKS
OMAHA EPPLEY   PTSUNNY    5  -6  60 NW29G38   30.57R WCI -19
BLAIR          CLOUDY     3  -6  64 NW25G32   30.54S WCI -20
FREMONT        CLOUDY     6  -3  67 NW24G30   30.58F WCI -16
MILLARD        CLOUDY     6  -4  61 NW18G28   30.58F WCI -13
OFFUTT AFB     CLOUDY     5  -6  61 NW26      30.56S WCI -18
PLATTSMOUTH    CLOUDY     4  -4  68 NW25      30.55S WCI -18
WAHOO          CLOUDY     7  -3  66 MISG      30.58S
$$




USA.gov is the U.S. government's official web portal to all federal, state and local government web resources and services.